Weather in Pleshcheyevo

Russia / Yaroslavl Oblast     57°19′26″N   39°43′46″E
temp.,
°C
wind,
m/s
gust,
m/s
humid.,
%
clouds,
%
prec.,
mm/h
press.,
hPa
HPBL,
m
9 may, sun
sun900:00+9se51395100 4.3 1002616
03:00+9ssw3698100 5.1 1002309
06:00+8wnw2596100 0.2 1003200
09:00+5nw61095100 0.3 1006436
12:00+4nnw71296100 0.4 1009535
15:00+5nnw81492100 1.1 1012781
18:00+8n61375100 0.0 10141060
21:00+5nnw388293 0.0 1017175
10 may, mon
mon1000:00+3nnw37856 0.0 1020130
03:00+2nnw39870 0.0 1023151
06:00+3nnw310810 0.0 1026268
09:00+8n47580 0.0 1027787
12:00+11n45464 0.0 10281466
15:00+13n34443 0.0 10281487
18:00+13nne24560 0.0 1028405
21:00+7e11644 0.0 102910
11 may, tue
tue1100:00+5ene11670 0.0 103010
03:00+4ne22705 0.0 103111
06:00+6ene24738 0.0 103291
09:00+12ene355799 0.0 1032545
12:00+15ene454920 0.0 1031960
15:00+17e45461 0.0 10301056
18:00+16ene36615 0.0 1030256
21:00+10e33740 0.0 103033
12 may, wed
wed1200:00+9ene33750 0.0 103038
03:00+8e36797 0.0 102982
06:00+10ene388245 0.0 1029184
09:00+16ene587139 0.0 1028457
12:00+20e6862100 0.0 10271040
15:00+22ese595640 0.1 10262164
18:00+18se377534 0.8 1026236
21:00+15ese3777100 0.8 1026141
13 may, thu
thu1300:00+15e3108590 0.2 1025201
03:00+14e498693 0.3 1024184
06:00+14ese41084100 0.0 1024247
09:00+17se51072100 0.1 1023550
12:00+20ese69568 0.0 10221029
15:00+22se7125670 0.0 10211589
18:00+18se5116593 0.0 1021486
21:00+16se367894 0.0 1021120